| time (UTC) | temp F | wind direction | speed MPH | gust MPH | rain 1hr in | rain 24hr in | rain mn in | humidity % | barometer mb |
| 20260503234925 | 68 | 212 | 11.0 | 15.0 | 0.00 | 0.00 | 0.00 | 48 | 1007.0 |
| 20260503234422 | 68 | 201 | 14.0 | 15.0 | 0.00 | 0.00 | 0.00 | 46 | 1006.9 |
| 20260503233920 | 68 | 187 | 9.0 | 15.0 | 0.00 | 0.00 | 0.00 | 46 | 1006.8 |
| 20260503233417 | 68 | 183 | 6.0 | 18.0 | 0.00 | 0.00 | 0.00 | 47 | 1006.9 |
| 20260503232913 | 68 | 207 | 11.0 | 14.0 | 0.00 | 0.00 | 0.00 | 46 | 1007.0 |
| 20260503232410 | 68 | 165 | 6.0 | 19.0 | 0.00 | 0.00 | 0.00 | 45 | 1006.8 |
| 20260503231908 | 68 | 168 | 5.0 | 15.0 | 0.00 | 0.00 | 0.00 | 45 | 1006.8 |
| 20260503231405 | 68 | 218 | 17.0 | 18.0 | 0.00 | 0.00 | 0.00 | 44 | 1007.2 |
| 20260503230901 | 68 | 221 | 7.0 | 21.0 | 0.00 | 0.00 | 0.00 | 44 | 1007.1 |
| 20260503230358 | 68 | 209 | 12.0 | 18.0 | 0.00 | 0.00 | 0.00 | 45 | 1007.2 |
| 20260503225856 | 69 | 191 | 14.0 | 22.0 | 0.00 | 0.00 | 0.00 | 45 | 1007.0 |
| 20260503225351 | 69 | 197 | 8.0 | 20.0 | 0.00 | 0.00 | 0.00 | 45 | 1007.1 |
| 20260503224848 | 68 | 201 | 7.0 | 19.0 | 0.00 | 0.00 | 0.00 | 45 | 1007.0 |
| 20260503224345 | 68 | 177 | 13.0 | 21.0 | 0.00 | 0.00 | 0.00 | 45 | 1007.3 |
| 20260503223843 | 68 | 206 | 11.0 | 17.0 | 0.00 | 0.00 | 0.00 | 46 | 1007.0 |
| 20260503223341 | 68 | 177 | 5.0 | 26.0 | 0.00 | 0.00 | 0.00 | 45 | 1007.1 |
| 20260503222836 | 68 | 204 | 12.0 | 24.0 | 0.00 | 0.00 | 0.00 | 45 | 1007.0 |
| 20260503222335 | 67 | 142 | 11.0 | 23.0 | 0.00 | 0.00 | 0.00 | 45 | 1007.1 |
| 20260503221832 | 67 | 181 | 9.0 | 17.0 | 0.00 | 0.00 | 0.00 | 46 | 1007.3 |
| 20260503221331 | 67 | 153 | 15.0 | 24.0 | 0.00 | 0.00 | 0.00 | 47 | 1007.3 |
| 20260503220826 | 67 | 187 | 13.0 | 26.0 | 0.00 | 0.00 | 0.00 | 45 | 1007.1 |
| 20260503220323 | 67 | 173 | 11.0 | 21.0 | 0.00 | 0.00 | 0.00 | 46 | 1007.5 |
| 20260503215820 | 67 | 172 | 7.0 | 22.0 | 0.00 | 0.00 | 0.00 | 46 | 1007.5 |
| 20260503215318 | 67 | 178 | 11.0 | 16.0 | 0.00 | 0.00 | 0.00 | 47 | 1007.6 |
| 20260503214815 | 67 | 185 | 18.0 | 26.0 | 0.00 | 0.00 | 0.00 | 45 | 1007.3 |
| 20260503214312 | 66 | 184 | 13.0 | 28.0 | 0.00 | 0.00 | 0.00 | 46 | 1007.6 |
| 20260503213810 | 66 | 164 | 20.0 | 29.0 | 0.00 | 0.00 | 0.00 | 46 | 1007.8 |
| 20260503213307 | 66 | 219 | 12.0 | 27.0 | 0.00 | 0.00 | 0.00 | 46 | 1007.5 |
| 20260503212804 | 66 | 179 | 17.0 | 30.0 | 0.00 | 0.00 | 0.00 | 46 | 1007.8 |
| 20260503212302 | 66 | 205 | 11.0 | 25.0 | 0.00 | 0.00 | 0.00 | 46 | 1008.1 |
| 20260503211759 | 66 | 190 | 7.0 | 24.0 | 0.00 | 0.00 | 0.00 | 45 | 1008.1 |
| 20260503211255 | 66 | 198 | 8.0 | 36.0 | 0.00 | 0.00 | 0.00 | 46 | 1008.1 |
| 20260503210755 | 66 | 210 | 21.0 | 30.0 | 0.00 | 0.00 | 0.00 | 47 | 1008.2 |
| 20260503210253 | 66 | 196 | 6.0 | 20.0 | 0.00 | 0.00 | 0.00 | 46 | 1008.2 |
| 20260503205748 | 66 | 173 | 13.0 | 23.0 | 0.00 | 0.00 | 0.00 | 46 | 1008.2 |
| 20260503205245 | 65 | 197 | 8.0 | 33.0 | 0.00 | 0.00 | 0.00 | 45 | 1008.5 |
| 20260503204741 | 65 | 205 | 17.0 | 23.0 | 0.00 | 0.00 | 0.00 | 46 | 1008.4 |
| 20260503204239 | 66 | 164 | 15.0 | 20.0 | 0.00 | 0.00 | 0.00 | 45 | 1008.5 |
| 20260503203736 | 66 | 178 | 8.0 | 24.0 | 0.00 | 0.00 | 0.00 | 47 | 1008.8 |
| 20260503203234 | 64 | 180 | 11.0 | 23.0 | 0.00 | 0.00 | 0.00 | 50 | 1008.8 |
| 20260503202731 | 64 | 197 | 13.0 | 34.0 | 0.00 | 0.00 | 0.00 | 51 | 1008.9 |
| 20260503202229 | 65 | 160 | 4.0 | 21.0 | 0.00 | 0.00 | 0.00 | 52 | 1009.1 |
| 20260503201726 | 63 | 146 | 16.0 | 23.0 | 0.00 | 0.00 | 0.00 | 53 | 1009.1 |
| 20260503201224 | 63 | 163 | 16.0 | 27.0 | 0.00 | 0.00 | 0.00 | 54 | 1009.0 |
| 20260503200720 | 62 | 137 | 15.0 | 24.0 | 0.00 | 0.00 | 0.00 | 54 | 1009.3 |
| 20260503200216 | 63 | 159 | 20.0 | 28.0 | 0.00 | 0.00 | 0.00 | 53 | 1009.4 |
| 20260503195713 | 63 | 147 | 22.0 | 27.0 | 0.00 | 0.00 | 0.00 | 55 | 1009.6 |
| 20260503195210 | 62 | 191 | 13.0 | 30.0 | 0.00 | 0.00 | 0.00 | 53 | 1009.9 |
| 20260503194707 | 61 | 180 | 13.0 | 33.0 | 0.00 | 0.00 | 0.00 | 52 | 1009.9 |
| 20260503194203 | 62 | 184 | 6.0 | 19.0 | 0.00 | 0.00 | 0.00 | 54 | 1009.8 |
| 20260503193700 | 61 | 140 | 10.0 | 30.0 | 0.00 | 0.00 | 0.00 | 54 | 1010.2 |
| 20260503193155 | 62 | 169 | 15.0 | 21.0 | 0.00 | 0.00 | 0.00 | 51 | 1010.4 |
| 20260503192651 | 61 | 161 | 13.0 | 32.0 | 0.00 | 0.00 | 0.00 | 52 | 1010.3 |
| 20260503192147 | 61 | 149 | 13.0 | 30.0 | 0.00 | 0.00 | 0.00 | 52 | 1010.2 |
| 20260503191644 | 61 | 148 | 11.0 | 29.0 | 0.00 | 0.00 | 0.00 | 50 | 1010.2 |
| 20260503191141 | 61 | 164 | 6.0 | 24.0 | 0.00 | 0.00 | 0.00 | 52 | 1010.0 |
| 20260503190638 | 61 | 147 | 15.0 | 28.0 | 0.00 | 0.00 | 0.00 | 51 | 1010.3 |
| 20260503190134 | 61 | 141 | 7.0 | 28.0 | 0.00 | 0.00 | 0.00 | 51 | 1010.1 |
| 20260503185631 | 61 | 160 | 20.0 | 27.0 | 0.00 | 0.00 | 0.00 | 50 | 1010.2 |
| 20260503185126 | 60 | 172 | 11.0 | 26.0 | 0.00 | 0.00 | 0.00 | 51 | 1010.1 |
| 20260503184621 | 60 | 134 | 15.0 | 29.0 | 0.00 | 0.00 | 0.00 | 52 | 1010.2 |
| 20260503184118 | 59 | 172 | 9.0 | 27.0 | 0.00 | 0.00 | 0.00 | 54 | 1010.4 |
| 20260503183615 | 60 | 139 | 22.0 | 32.0 | 0.00 | 0.00 | 0.00 | 53 | 1010.2 |
| 20260503183112 | 60 | 156 | 10.0 | 22.0 | 0.00 | 0.00 | 0.00 | 57 | 1010.4 |
| 20260503182611 | 59 | 165 | 13.0 | 25.0 | 0.00 | 0.00 | 0.00 | 55 | 1010.7 |
| 20260503182108 | 59 | 157 | 10.0 | 27.0 | 0.00 | 0.00 | 0.00 | 56 | 1010.7 |
| 20260503181605 | 58 | 177 | 23.0 | 33.0 | 0.00 | 0.00 | 0.00 | 54 | 1010.6 |
| 20260503181102 | 58 | 160 | 14.0 | 32.0 | 0.00 | 0.00 | 0.00 | 56 | 1010.6 |
| 20260503180559 | 58 | 144 | 28.0 | 33.0 | 0.00 | 0.00 | 0.00 | 55 | 1010.8 |
| 20260503180056 | 59 | 170 | 9.0 | 23.0 | 0.00 | 0.00 | 0.00 | 57 | 1010.9 |
| 20260503175553 | 58 | 159 | 9.0 | 24.0 | 0.00 | 0.00 | 0.00 | 59 | 1011.3 |
| 20260503175050 | 58 | 164 | 13.0 | 28.0 | 0.00 | 0.00 | 0.00 | 61 | 1011.2 |
| 20260503174547 | 57 | 167 | 8.0 | 30.0 | 0.00 | 0.00 | 0.00 | 60 | 1011.3 |
| 20260503174044 | 57 | 160 | 16.0 | 37.0 | 0.00 | 0.00 | 0.00 | 59 | 1011.5 |
| 20260503173539 | 58 | 183 | 23.0 | 30.0 | 0.00 | 0.00 | 0.00 | 61 | 1011.9 |
| 20260503173035 | 56 | 164 | 10.0 | 27.0 | 0.00 | 0.00 | 0.00 | 63 | 1011.8 |
| 20260503172533 | 56 | 165 | 21.0 | 36.0 | 0.00 | 0.00 | 0.00 | 64 | 1011.8 |
| 20260503172030 | 56 | 172 | 12.0 | 27.0 | 0.00 | 0.00 | 0.00 | 65 | 1012.4 |
| 20260503171526 | 55 | 157 | 11.0 | 21.0 | 0.00 | 0.00 | 0.00 | 66 | 1012.7 |
| 20260503171024 | 54 | 138 | 17.0 | 25.0 | 0.00 | 0.00 | 0.00 | 67 | 1012.7 |
| 20260503170520 | 54 | 143 | 18.0 | 34.0 | 0.00 | 0.00 | 0.00 | 68 | 1012.5 |
| 20260503150912 | 55 | 196 | 16.0 | 25.0 | 0.00 | 0.00 | 0.00 | 60 | 1014.1 |
| 20260503150409 | 55 | 201 | 16.0 | 30.0 | 0.00 | 0.00 | 0.00 | 60 | 1014.1 |
| 20260503131302 | 52 | 177 | 9.0 | 28.0 | 0.00 | 0.00 | 0.00 | 59 | 1014.7 |
| 20260503130800 | 51 | 202 | 8.0 | 24.0 | 0.00 | 0.00 | 0.00 | 61 | 1014.7 |
| 20260503130257 | 51 | 172 | 8.0 | 19.0 | 0.00 | 0.00 | 0.00 | 60 | 1014.9 |
| 20260503110650 | 49 | 150 | 8.0 | 15.0 | 0.00 | 0.00 | 0.00 | 57 | 1014.5 |
| 20260503110148 | 49 | 203 | 12.0 | 22.0 | 0.00 | 0.00 | 0.00 | 57 | 1014.5 |
| 20260503100114 | 49 | 166 | 5.0 | 16.0 | 0.00 | 0.00 | 0.00 | 55 | 1015.0 |
| 20260503081504 | 47 | 173 | 4.0 | 13.0 | 0.00 | 0.00 | 0.00 | 56 | 1015.5 |
| 20260503081001 | 47 | 170 | 5.0 | 10.0 | 0.00 | 0.00 | 0.00 | 57 | 1015.7 |
| 20260503080457 | 47 | 174 | 9.0 | 11.0 | 0.00 | 0.00 | 0.00 | 57 | 1015.6 |
| 20260503072934 | 46 | 167 | 6.0 | 8.0 | 0.00 | 0.00 | 0.00 | 59 | 1015.7 |
| 20260503072431 | 46 | 182 | 5.0 | 10.0 | 0.00 | 0.00 | 0.00 | 59 | 1015.5 |
| 20260503071928 | 46 | 175 | 10.0 | 11.0 | 0.00 | 0.00 | 0.00 | 59 | 1015.7 |
| 20260503071425 | 46 | 152 | 7.0 | 9.0 | 0.00 | 0.00 | 0.00 | 60 | 1015.9 |
| 20260503070921 | 46 | 160 | 3.0 | 8.0 | 0.00 | 0.00 | 0.00 | 61 | 1015.8 |
| 20260503070418 | 46 | 144 | 7.0 | 8.0 | 0.00 | 0.00 | 0.00 | 61 | 1015.9 |
| 20260503054832 | 46 | 147 | 4.0 | 7.0 | 0.00 | 0.00 | 0.00 | 59 | 1016.3 |
| 20260503054328 | 46 | 148 | 3.0 | 7.0 | 0.00 | 0.00 | 0.00 | 59 | 1016.7 |
| 20260503053826 | 46 | 154 | 5.0 | 9.0 | 0.00 | 0.00 | 0.00 | 58 | 1016.9 |
| 20260503053324 | 46 | 148 | 6.0 | 8.0 | 0.00 | 0.00 | 0.00 | 59 | 1016.8 |
| 20260503052820 | 46 | 165 | 4.0 | 8.0 | 0.00 | 0.00 | 0.00 | 59 | 1016.8 |
| 20260503052317 | 46 | 156 | 5.0 | 8.0 | 0.00 | 0.00 | 0.00 | 59 | 1016.6 |
| 20260503051813 | 46 | 189 | 3.0 | 7.0 | 0.00 | 0.00 | 0.00 | 60 | 1016.9 |
| 20260503051309 | 46 | 158 | 4.0 | 8.0 | 0.00 | 0.00 | 0.00 | 60 | 1016.7 |
| 20260503050806 | 46 | 153 | 3.0 | 7.0 | 0.00 | 0.00 | 0.00 | 60 | 1016.9 |
| 20260503050302 | 46 | 153 | 4.0 | 8.0 | 0.00 | 0.00 | 0.00 | 60 | 1016.8 |
| 20260503045800 | 46 | 148 | 4.0 | 6.0 | 0.00 | 0.00 | 0.00 | 60 | 1017.1 |
| 20260503045258 | 46 | 187 | 4.0 | 7.0 | 0.00 | 0.00 | 0.00 | 60 | 1016.9 |
| 20260503044754 | 46 | 173 | 4.0 | 7.0 | 0.00 | 0.00 | 0.00 | 59 | 1016.7 |
| 20260503044251 | 47 | 180 | 5.0 | 9.0 | 0.00 | 0.00 | 0.00 | 59 | 1016.9 |
| 20260503043748 | 46 | 173 | 4.0 | 7.0 | 0.00 | 0.00 | 0.00 | 59 | 1017.0 |
| 20260503043245 | 47 | 160 | 5.0 | 7.0 | 0.00 | 0.00 | 0.00 | 59 | 1017.0 |
| 20260503042741 | 47 | 174 | 4.0 | 9.0 | 0.00 | 0.00 | 0.00 | 58 | 1017.0 |
| 20260503042238 | 47 | 139 | 4.0 | 7.0 | 0.00 | 0.00 | 0.00 | 59 | 1017.0 |
| 20260503041734 | 47 | 170 | 5.0 | 9.0 | 0.00 | 0.00 | 0.00 | 58 | 1017.0 |
| 20260503041232 | 47 | 145 | 5.0 | 8.0 | 0.00 | 0.00 | 0.00 | 58 | 1017.1 |
| 20260503040729 | 47 | 166 | 5.0 | 9.0 | 0.00 | 0.00 | 0.00 | 58 | 1017.2 |
| 20260503040221 | 47 | 122 | 2.0 | 6.0 | 0.00 | 0.00 | 0.00 | 59 | 1017.1 |
| 20260503035718 | 47 | 173 | 2.0 | 9.0 | 0.00 | 0.00 | 0.00 | 59 | 1017.1 |
| 20260503035215 | 47 | 144 | 3.0 | 7.0 | 0.00 | 0.00 | 0.00 | 59 | 1017.2 |
| 20260503034712 | 47 | 164 | 3.0 | 6.0 | 0.00 | 0.00 | 0.00 | 58 | 1017.2 |
| 20260503034209 | 47 | 154 | 4.0 | 8.0 | 0.00 | 0.00 | 0.00 | 58 | 1017.4 |
| 20260503033707 | 47 | 152 | 5.0 | 9.0 | 0.00 | 0.00 | 0.00 | 57 | 1017.4 |
| 20260503033204 | 47 | 188 | 3.0 | 6.0 | 0.00 | 0.00 | 0.00 | 57 | 1017.3 |
| 20260503032702 | 47 | 151 | 2.0 | 7.0 | 0.00 | 0.00 | 0.00 | 57 | 1017.2 |
| 20260503032200 | 48 | 136 | 4.0 | 7.0 | 0.00 | 0.00 | 0.00 | 57 | 1017.5 |
| 20260503031657 | 48 | 170 | 5.0 | 9.0 | 0.00 | 0.00 | 0.00 | 57 | 1017.3 |
| 20260503031155 | 48 | 138 | 3.0 | 7.0 | 0.00 | 0.00 | 0.00 | 57 | 1017.2 |
| 20260503030651 | 48 | 137 | 4.0 | 6.0 | 0.00 | 0.00 | 0.00 | 56 | 1017.3 |
| 20260503030148 | 48 | 118 | 3.0 | 9.0 | 0.00 | 0.00 | 0.00 | 56 | 1017.3 |
| 20260503025644 | 48 | 169 | 3.0 | 7.0 | 0.00 | 0.00 | 0.00 | 56 | 1017.4 |
| 20260503025143 | 48 | 137 | 4.0 | 5.0 | 0.00 | 0.00 | 0.00 | 58 | 1017.4 |
| 20260503024638 | 48 | 175 | 3.0 | 5.0 | 0.00 | 0.00 | 0.00 | 56 | 1017.5 |
| 20260503024136 | 48 | 136 | 3.0 | 5.0 | 0.00 | 0.00 | 0.00 | 56 | 1017.4 |
| 20260503023633 | 48 | 123 | 3.0 | 7.0 | 0.00 | 0.00 | 0.00 | 56 | 1017.5 |
| 20260503023130 | 48 | 131 | 2.0 | 7.0 | 0.00 | 0.00 | 0.00 | 57 | 1017.5 |
| 20260503022625 | 48 | 136 | 3.0 | 6.0 | 0.00 | 0.00 | 0.00 | 57 | 1017.4 |
| 20260503022120 | 48 | 149 | 5.0 | 7.0 | 0.00 | 0.00 | 0.00 | 57 | 1017.6 |
| 20260503021618 | 48 | 112 | 2.0 | 6.0 | 0.00 | 0.00 | 0.00 | 55 | 1017.4 |
| 20260503021114 | 48 | 136 | 3.0 | 6.0 | 0.00 | 0.00 | 0.00 | 55 | 1017.6 |
| 20260503020611 | 49 | 152 | 3.0 | 6.0 | 0.00 | 0.00 | 0.00 | 56 | 1017.5 |
| 20260503020109 | 49 | 135 | 2.0 | 7.0 | 0.00 | 0.00 | 0.00 | 54 | 1017.4 |
| 20260503015605 | 49 | 148 | 5.0 | 8.0 | 0.00 | 0.00 | 0.00 | 55 | 1017.7 |
| 20260503015102 | 49 | 153 | 3.0 | 6.0 | 0.00 | 0.00 | 0.00 | 53 | 1017.3 |
| 20260503014558 | 49 | 130 | 4.0 | 7.0 | 0.00 | 0.00 | 0.00 | 53 | 1017.2 |
| 20260503014056 | 49 | 143 | 3.0 | 5.0 | 0.00 | 0.00 | 0.00 | 54 | 1017.4 |
| 20260503013553 | 49 | 134 | 2.0 | 5.0 | 0.00 | 0.00 | 0.00 | 53 | 1017.1 |
| 20260503013051 | 50 | 139 | 3.0 | 6.0 | 0.00 | 0.00 | 0.00 | 53 | 1017.3 |
| 20260503012548 | 50 | 139 | 2.0 | 5.0 | 0.00 | 0.00 | 0.00 | 52 | 1017.2 |
| 20260503012044 | 50 | 130 | 3.0 | 5.0 | 0.00 | 0.00 | 0.00 | 51 | 1017.4 |
| 20260503011541 | 51 | 129 | 3.0 | 5.0 | 0.00 | 0.00 | 0.00 | 53 | 1017.1 |
| 20260503011038 | 51 | 151 | 3.0 | 6.0 | 0.00 | 0.00 | 0.00 | 49 | 1017.4 |
| 20260503010534 | 51 | 142 | 5.0 | 6.0 | 0.00 | 0.00 | 0.00 | 49 | 1017.0 |
| 20260503010032 | 51 | 146 | 4.0 | 6.0 | 0.00 | 0.00 | 0.00 | 48 | 1017.1 |
| 20260503005529 | 52 | 132 | 5.0 | 6.0 | 0.00 | 0.00 | 0.00 | 48 | 1017.3 |
| 20260503005026 | 52 | 135 | 4.0 | 7.0 | 0.00 | 0.00 | 0.00 | 48 | 1017.5 |
| 20260503004522 | 53 | 180 | 4.0 | 7.0 | 0.00 | 0.00 | 0.00 | 46 | 1017.1 |
| 20260503004021 | 53 | 185 | 2.0 | 8.0 | 0.00 | 0.00 | 0.00 | 47 | 1017.2 |
| 20260503003517 | 53 | 170 | 5.0 | 6.0 | 0.00 | 0.00 | 0.00 | 47 | 1017.5 |
| 20260503003014 | 53 | 163 | 3.0 | 6.0 | 0.00 | 0.00 | 0.00 | 45 | 1017.3 |
| 20260503002511 | 54 | 157 | 2.0 | 9.0 | 0.00 | 0.00 | 0.00 | 46 | 1017.3 |
| 20260503002008 | 54 | 179 | 4.0 | 8.0 | 0.00 | 0.00 | 0.00 | 44 | 1017.5 |
| 20260503001504 | 55 | 166 | 4.0 | 6.0 | 0.00 | 0.00 | 0.00 | 44 | 1017.6 |
| 20260503001002 | 55 | 201 | 3.0 | 7.0 | 0.00 | 0.00 | 0.00 | 44 | 1017.5 |
| 20260503000459 | 55 | 207 | 1.0 | 4.0 | 0.00 | 0.00 | 0.00 | 44 | 1017.5 |
| 20260502235956 | 55 | 166 | 4.0 | 8.0 | 0.00 | 0.00 | 0.00 | 43 | 1017.3 |
| 20260502235452 | 55 | 204 | 2.0 | 9.0 | 0.00 | 0.00 | 0.00 | 42 | 1017.3 |